STARLINK-11279 [DTC]

Last updated on Fri Oct 04 2024 00:02:04 GMT+0000 (Coordinated Universal Time)

1 61206U 24171G 24277.58334491 -.00939259 00000+0 -46721-2 0 9999 2 61206 53.1629 231.4763 0000478 115.3188 358.1502 15.83545901 3283
UTC large
Height (km)
Speed (km/s)
/
Latitude / Longitude
Inclination (degrees)
Orbital Period (minutes)
Azimuth
Elevation
Range (km)
Doppler Factor

Next 0 passes for location: London (51.5072 / 0.1276)

Sorry there are no passes over London.